This is the latest recevied weather packets stored in our database for station/object JF7ELG-13. If no packets are shown the sender has not sent any weather packets the latest 10 day(s).
| Time | Temp. | Humidity | Pressure | Rain* | Wind** | Luminosity | Snow |
|---|---|---|---|---|---|---|---|
| 1777712614 | 19.44° C | 47% | 1005.4 hPa | 0 mm | - | - | - |
| 1777711695 | 20° C | 42% | 1004.7 hPa | 0 mm | - | - | - |
| 1777710813 | 20.56° C | 39% | 1004.5 hPa | 0 mm | - | - | - |
| 1777709898 | 20.56° C | 36% | 1004.1 hPa | 0 mm | - | - | - |
| 1777709032 | 21.11° C | 36% | 1004.1 hPa | 0 mm | - | - | - |
| 1777708108 | 21.67° C | 35% | 1003.7 hPa | 0 mm | - | - | - |
| 1777707217 | 22.22° C | 32% | 1003.4 hPa | 0 mm | - | - | - |
| 1777706313 | 23.33° C | 30% | 1003 hPa | 0 mm | - | - | - |
| 1777705423 | 23.33° C | 29% | 1002.3 hPa | 0 mm | - | - | - |
| 1777704516 | 23.89° C | 28% | 1002.3 hPa | 0 mm | - | - | - |
| 1777703598 | 23.89° C | 28% | 1002 hPa | 0 mm | - | - | - |
| 1777702711 | 24.44° C | 28% | 1001.3 hPa | 0 mm | - | - | - |
| 1777701843 | 24.44° C | 30% | 1000.5 hPa | 0 mm | - | - | - |
| 1777700908 | 24.44° C | 29% | 1000.1 hPa | 0 mm | - | - | - |
| 1777700007 | 23.89° C | 29% | 999.8 hPa | 0 mm | - | - | - |
| 1777699131 | 23.89° C | 27% | 999.6 hPa | 0 mm | - | - | - |
| 1777698206 | 24.44° C | 30% | 999.6 hPa | 0 mm | - | - | - |
| 1777697292 | 24.44° C | 30% | 999.4 hPa | 0 mm | - | - | - |
| 1777696410 | 24.44° C | 28% | 999.5 hPa | 0 mm | - | - | - |
| 1777695518 | 25° C | 29% | 999.4 hPa | 0 mm | - | - | - |
| 1777694614 | 24.44° C | 29% | 999.2 hPa | 0 mm | - | - | - |
| 1777693706 | 25° C | 27% | 998.6 hPa | 0 mm | - | - | - |
| 1777692791 | 25° C | 27% | 998.4 hPa | 0 mm | - | - | - |
| 1777691904 | 25° C | 28% | 997.6 hPa | 0 mm | - | - | - |
| 1777691000 | 25.56° C | 28% | 997.2 hPa | 0 mm | - | - | - |
* Rain latest hour (hover to see other rain measurements)
** Current wind speed in m/s (hover to see current wind gust speed)